Total_Precipitation_Accumulation
0.11 0.13 0.08 0.06 0.05 0.09 0.16 0.22 0.19 0.15 0.16 0.14 0.10 0.08 0.08 0.11 0.10 0.07 0.04 0.04 0.05 0.12 0.17 0.19 0.18 0.15 0.14 0.13 0.14 0.14 0.13 0.14 0.14 0.12 0.11 0.10 0.08 0.08 0.13 0.17 0.19 0.20 0.15
0.28 0.26 0.21 0.18 0.14 0.21 0.31 0.36 0.32 0.28 0.20 0.21 0.15 0.12 0.11 0.13 0.12 0.12 0.09 0.06 0.04 0.04 0.07 0.12 0.16 0.18 0.18 0.18 0.16 0.12 0.09 0.10 0.10 0.09 0.09 0.08 0.08 0.07 0.10 0.16 0.19 0.16 0.10
0.65 0.62 0.52 0.34 0.30 0.43 0.47 0.40 0.35 0.42 0.31 0.30 0.24 0.30 0.28 0.24 0.15 0.11 0.12 0.09 0.05 0.04 0.05 0.07 0.15 0.21 0.26 0.28 0.25 0.20 0.15 0.11 0.07 0.05 0.06 0.07 0.06 0.06 0.06 0.08 0.12 0.11 0.08
0.83 0.89 0.68 0.43 0.54 0.70 0.65 0.53 0.50 0.54 0.44 0.46 0.43 0.41 0.33 0.25 0.13 0.08 0.06 0.04 0.04 0.02 0.03 0.11 0.16 0.19 0.30 0.36 0.35 0.35 0.29 0.22 0.12 0.05 0.04 0.05 0.04 0.03 0.03 0.03 0.05 0.07 0.06
0.53 0.57 0.34 0.26 0.48 0.57 0.48 0.46 0.52 0.57 0.54 0.57 0.57 0.36 0.22 0.13 0.08 0.07 0.05 0.02 0.03 0.03 0.04 0.12 0.13 0.19 0.30 0.37 0.41 0.42 0.41 0.35 0.26 0.13 0.07 0.04 0.03 0.03 0.02 0.01 0.03 0.06 0.07
0.25 0.33 0.20 0.18 0.44 0.50 0.43 0.53 0.55 0.50 0.41 0.46 0.43 0.16 0.10 0.08 0.07 0.06 0.05 0.03 0.03 0.02 0.03 0.05 0.07 0.12 0.23 0.32 0.37 0.38 0.39 0.35 0.26 0.17 0.12 0.08 0.06 0.04 0.02 0.02 0.04 0.05 0.05
0.18 0.30 0.21 0.25 0.40 0.42 0.36 0.39 0.41 0.34 0.22 0.36 0.39 0.16 0.06 0.04 0.05 0.04 0.03 0.02 0.02 0.02 0.03 0.04 0.07 0.08 0.07 0.13 0.24 0.29 0.36 0.37 0.27 0.19 0.15 0.13 0.10 0.07 0.06 0.06 0.05 0.03 0.03
0.13 0.24 0.20 0.15 0.21 0.23 0.18 0.18 0.28 0.29 0.24 0.37 0.42 0.30 0.11 0.05 0.03 0.02 0.03 0.02 0.02 0.03 0.04 0.04 0.09 0.13 0.15 0.17 0.18 0.17 0.26 0.31 0.32 0.31 0.29 0.23 0.15 0.10 0.11 0.14 0.11 0.06 0.04
0.04 0.07 0.09 0.11 0.16 0.23 0.22 0.22 0.27 0.29 0.22 0.22 0.31 0.33 0.20 0.07 0.05 0.05 0.08 0.07 0.08 0.11 0.13 0.13 0.16 0.17 0.20 0.24 0.23 0.17 0.19 0.19 0.36 0.48 0.39 0.26 0.13 0.09 0.13 0.20 0.20 0.12 0.12
0.03 0.04 0.05 0.05 0.10 0.17 0.17 0.15 0.17 0.19 0.18 0.14 0.17 0.20 0.22 0.18 0.14 0.08 0.09 0.12 0.14 0.17 0.21 0.21 0.22 0.24 0.25 0.25 0.29 0.32 0.27 0.23 0.27 0.29 0.31 0.32 0.24 0.16 0.12 0.19 0.31 0.30 0.21
0.03 0.04 0.04 0.04 0.06 0.08 0.09 0.09 0.09 0.11 0.10 0.08 0.09 0.12 0.22 0.27 0.28 0.21 0.13 0.12 0.12 0.12 0.17 0.19 0.22 0.26 0.25 0.28 0.34 0.38 0.41 0.36 0.23 0.15 0.25 0.36 0.35 0.29 0.21 0.23 0.36 0.44 0.46
0.04 0.06 0.07 0.08 0.09 0.10 0.09 0.10 0.10 0.10 0.09 0.08 0.09 0.12 0.18 0.24 0.28 0.29 0.23 0.17 0.16 0.18 0.20 0.22 0.30 0.35 0.33 0.34 0.30 0.23 0.20 0.18 0.18 0.18 0.24 0.27 0.26 0.25 0.28 0.35 0.46 0.59 0.71
0.03 0.06 0.11 0.12 0.12 0.12 0.11 0.12 0.13 0.12 0.12 0.11 0.12 0.13 0.16 0.23 0.29 0.31 0.28 0.23 0.22 0.25 0.32 0.30 0.33 0.36 0.33 0.31 0.28 0.19 0.09 0.06 0.07 0.10 0.20 0.32 0.39 0.42 0.41 0.40 0.44 0.52 0.61
0.05 0.08 0.09 0.09 0.09 0.09 0.10 0.11 0.10 0.10 0.14 0.18 0.20 0.20 0.21 0.26 0.35 0.35 0.33 0.31 0.28 0.33 0.45 0.40 0.32 0.27 0.25 0.24 0.22 0.16 0.08 0.04 0.03 0.02 0.03 0.05 0.07 0.12 0.18 0.23 0.30 0.38 0.46
0.07 0.08 0.07 0.07 0.08 0.08 0.09 0.10 0.11 0.14 0.19 0.20 0.24 0.31 0.32 0.34 0.37 0.37 0.35 0.35 0.37 0.38 0.40 0.34 0.28 0.25 0.22 0.21 0.19 0.12 0.07 0.03 0.01 0.01 0.01 0.01 0.01 0.01 0.02 0.03 0.06 0.09 0.14
0.06 0.09 0.12 0.12 0.11 0.10 0.14 0.20 0.19 0.17 0.24 0.31 0.38 0.43 0.43 0.45 0.44 0.38 0.36 0.36 0.35 0.37 0.34 0.24 0.21 0.24 0.21 0.15 0.12 0.08 0.04 0.02 0.01 0.01 0.00 0.00 0.01 0.03 0.03 0.02 0.01 0.02 0.03
0.07 0.11 0.15 0.17 0.18 0.22 0.36 0.49 0.47 0.37 0.42 0.47 0.51 0.56 0.58 0.56 0.51 0.40 0.34 0.31 0.28 0.28 0.24 0.16 0.12 0.14 0.13 0.09 0.07 0.04 0.02 0.01 0.01 0.01 0.01 0.00 0.01 0.02 0.02 0.02 0.01 0.01 0.02
0.05 0.05 0.07 0.11 0.15 0.19 0.30 0.56 0.70 0.69 0.65 0.55 0.55 0.64 0.66 0.57 0.46 0.37 0.32 0.28 0.23 0.20 0.17 0.14 0.10 0.09 0.09 0.08 0.06 0.04 0.03 0.01 0.02 0.04 0.03 0.01 0.02 0.01 0.00 0.01 0.01 0.01 0.01
0.06 0.04 0.05 0.10 0.16 0.17 0.21 0.39 0.58 0.65 0.63 0.56 0.56 0.57 0.55 0.52 0.43 0.35 0.27 0.21 0.16 0.14 0.12 0.10 0.09 0.07 0.06 0.05 0.04 0.04 0.02 0.02 0.01 0.01 0.04 0.04 0.04 0.01 0.00 0.00 0.00 0.01 0.01
0.06 0.06 0.09 0.13 0.15 0.13 0.15 0.27 0.40 0.48 0.49 0.48 0.47 0.44 0.42 0.39 0.37 0.33 0.25 0.19 0.14 0.12 0.10 0.08 0.07 0.06 0.04 0.03 0.02 0.02 0.01 0.00 0.00 0.00 0.03 0.08 0.08 0.03 0.01 0.00 0.00 0.00 0.01
0.05 0.07 0.11 0.12 0.09 0.08 0.17 0.27 0.29 0.26 0.29 0.31 0.30 0.26 0.26 0.30 0.32 0.30 0.23 0.16 0.13 0.12 0.10 0.07 0.05 0.04 0.02 0.02 0.01 0.00 0.00 0.00 0.00 0.00 0.01 0.03 0.02 0.01 0.01 0.00 0.00 0.00 0.01
0.06 0.06 0.06 0.07 0.05 0.06 0.13 0.18 0.15 0.13 0.12 0.13 0.13 0.12 0.11 0.13 0.17 0.19 0.17 0.11 0.07 0.06 0.06 0.05 0.04 0.03 0.03 0.02 0.01 0.00 0.00 0.00 0.00 0.00 0.00 0.00 0.00 0.00 0.00 0.00 0.00 0.00 0.00
0.07 0.07 0.06 0.05 0.03 0.03 0.04 0.05 0.04 0.03 0.03 0.04 0.04 0.04 0.03 0.04 0.05 0.05 0.04 0.03 0.03 0.02 0.02 0.03 0.02 0.02 0.01 0.01 0.00 0.00 0.00 0.00 0.01 0.00 0.00 0.00 0.00 0.00 0.00 0.00 0.00 0.00 0.00
0.07 0.09 0.09 0.08 0.06 0.04 0.00 0.00 0.01 0.01 0.01 0.01 0.01 0.01 0.01 0.02 0.02 0.02 0.02 0.01 0.01 0.00 0.01 0.01 0.01 0.01 0.00 0.00 0.00 0.00 0.00 0.00 0.00 0.00 0.00 0.00 0.00 0.01 0.01 0.02 0.00 0.00 0.00
0.09 0.11 0.12 0.12 0.10 0.07 0.01 0.00 0.00 0.00 0.00 0.00 0.00 0.00 0.00 0.00 0.01 0.01 0.01 0.01 0.00 0.00 0.00 0.00 0.00 0.00 0.00 0.00 0.00 0.00 0.00 0.00 0.00 0.00 0.00 0.00 0.00 0.01 0.02 0.02 0.02 0.01 0.00
0.14 0.15 0.16 0.15 0.14 0.12 0.04 0.01 0.00 0.00 0.01 0.01 0.00 0.00 0.00 0.00 0.00 0.00 0.00 0.00 0.00 0.00 0.00 0.00 0.00 0.00 0.00 0.00 0.00 0.00 0.00 0.00 0.00 0.01 0.00 0.00 0.00 0.01 0.02 0.02 0.02 0.02 0.01